Flag for U.S.A. Weather past 2 weeks in Montpelier, Vermont, U.S.A.

Now
61 °F

Fog.


Feels Like: 61 °F
Forecast: 58 / 69 °F
Wind: 3 mph from Northeast

Location: Knapp State Airport

Current Time: Jul 28, 2014 at 6:57:33 AM

Latest Report: Jul 28, 2014 at 5:51 AM


Visibility: 0 mi

Pressure: 29.67 "Hg

Humidity: 100%

Dew point: 61 °F

Location of MontpelierLocation

Historic Weather in Montpelier — Graph

°F

Montpelier temperature yesterday

Maximum temperature yesterday: 76 °F (at 4:51 PM)
Minimum temperature yesterday: 58 °F (at 2:51 AM)
Average temperature yesterday: 66 °F

Past Weeks' High & Low Weather Summary

 TemperatureHumidityPressure
High86 °F (Jul 23, 1:51 PM)100% (Jul 14, 2:51 AM)30.35 "Hg (Jul 14, 2:51 AM)
Low48 °F (Jul 18, 3:51 AM)39% (Jul 20, 3:51 PM)29.67 "Hg (Jul 27, 5:51 PM)
Average66 °F78%30.00 "Hg
* Reported Jul 13 4:51 AM — Jul 28 4:51 AM, Montpelier, Weather by CustomWeather, © 2014

Note: Actual official high and low records may vary slightly from our data, if they occured in-between our weather recording intervals... More about our weather records

Advertising

Montpelier weather history for previous 24 hours

 ConditionsComfort  
Time TempWeatherWind HumidityBarometerVisibility
4:51 AM
Jul 28
61 °FFog.No wind100%29.68 "Hg0 mi
3:51 AM60 °FFog.No wind100%29.67 "Hg1 mi
2:59 AM60 °FFog.3 mph100%29.69 "Hg3 mi
1:51 AM61 °FFog.6 mph100%29.69 "Hg0 mi
1:04 AM60 °FFog.No wind100%29.71 "Hg0 mi
12:57 AM60 °FFog.No wind100%29.72 "Hg1 mi
12:04 AM60 °FFog.No wind96%29.72 "Hg1 mi
12:00 AM59 °FFog.No wind100%29.72 "Hg2 mi
10:51 PM
Jul 27
62 °FPassing clouds.5 mph93%29.73 "Hg10 mi
9:51 PM62 °FPassing clouds.5 mph96%29.74 "Hg10 mi
8:51 PM64 °FThundershowers. Broken clouds.6 mph94%29.70 "Hg10 mi
7:51 PM69 °FSunny.No wind81%29.68 "Hg10 mi
6:51 PM72 °FPartly sunny.8 mph78%29.68 "Hg10 mi
5:51 PM73 °FPartly sunny.9 mph74%29.67 "Hg10 mi
4:51 PM76 °FScattered clouds.7 mph69%29.68 "Hg10 mi
3:51 PM75 °FPartly sunny.10 mph69%29.69 "Hg10 mi
2:51 PM72 °FBroken clouds.7 mph73%29.72 "Hg10 mi
1:51 PM73 °FBroken clouds.14 mph74%29.72 "Hg10 mi
12:59 PM72 °FPartly sunny.10 mph76%29.74 "Hg10 mi
11:51 AM66 °FLight rain. Broken clouds.5 mph93%29.75 "Hg9 mi
10:51 AM63 °FRain. Fog.8 mph93%29.74 "Hg4 mi
10:00 AM63 °FRain. Fog.9 mph97%29.79 "Hg2 mi
8:51 AM64 °FOvercast.7 mph87%29.78 "Hg10 mi
7:51 AM63 °FOvercast.No wind90%29.80 "Hg10 mi
6:51 AM62 °FBroken clouds.No wind93%29.80 "Hg10 mi
6:02 AM61 °FMostly cloudy.5 mph93%29.82 "Hg10 mi
Weather by CustomWeather, © 2014

See weather overviewHow to use our weather pages